Regional Weather Roundup
Issued by NWS Charleston, WV

Home | Current Version | Previous Version | Graphics & Text | Print | Product List | Glossary On
Versions: 1 2 3 4 5 6 7 8 9 10 11 12 13 14 15 16 17 18 19 20 21 22 23 24 25 26 27 28 29 30 31 32 33 34 35 36 37 38 39 40 41 42 43 44 45 46 47 48 49 50
000
ASUS41 KRLX 042210
RWRRLX
West Virginia Regional Weather Roundup
National Weather Service Charleston WV
600 PM EDT MON MAY 04 2015

Note: "fair" indicates few or no clouds below 12,000 feet with no
significant weather and/or obstructions to visibility.

WVZ003-042300-
Northern Panhandle of West Virginia

CITY           SKY/WX    TMP DP  RH WIND       PRES   REMARKS
WHEELING       PTSUNNY   78  47  33 W9        30.15S
$$

WVZ009-042300-
Northwest West Virginia

CITY           SKY/WX    TMP DP  RH WIND       PRES   REMARKS
PARKERSBURG    MOSUNNY   80  48  32 W9        30.18F
$$

WVZ006-042300-
Western West Virginia

CITY           SKY/WX    TMP DP  RH WIND       PRES   REMARKS
HUNTINGTON     SUNNY     81  47  30 W10G18    30.17S
$$

WVZ015-042300-
West Central West Virginia

CITY           SKY/WX    TMP DP  RH WIND       PRES   REMARKS
CHARLESTON     MOSUNNY   82  47  29 SW9       30.18S
$$

WVZ022-031-042300-
North Central West Virginia

CITY           SKY/WX    TMP DP  RH WIND       PRES   REMARKS
CLARKSBURG     MOSUNNY   79  48  33 SW8G20    30.17S
MORGANTOWN     MOSUNNY   82  44  26 SW8       30.17S
$$

WVZ025-035-042-045-042300-
Southern West Virginia

CITY           SKY/WX    TMP DP  RH WIND       PRES   REMARKS
BECKLEY        MOSUNNY   78  43  28 W8        30.26S
LOGAN            N/A     79  48  34 CALM      30.19S
BLUEFIELD      PTSUNNY   76  41  28 W8        30.29S
LEWISBURG      MOSUNNY   77  42  28 SW8       30.25S
$$

WVZ047-042300-
Northern Mountains of West Virginia

CITY           SKY/WX    TMP DP  RH WIND       PRES   REMARKS
ELKINS         MOSUNNY   78  43  28 W8        30.21S
$$

WVZ052-042300-
Eastern Panhandle of West Virginia

CITY           SKY/WX    TMP DP  RH WIND       PRES   REMARKS
MARTINSBURG    MOSUNNY   80  50  34 S9        30.13S
PETERSBURG     MOSUNNY   81  42  25 W10       30.15S
$$



USA.gov is the U.S. government's official web portal to all federal, state and local government web resources and services.